This is the latest recevied weather packets stored in our database for station/object KJ6HT. If no packets are shown the sender has not sent any weather packets the latest 10 day(s).
| Time | Temp. | Humidity | Pressure | Rain* | Wind** | Luminosity | Snow |
|---|---|---|---|---|---|---|---|
| 1788643818 | 34.44° C | 22% | 1011 hPa | 0 mm | - | - | - |
| 1788642952 | 33.89° C | 22% | 1011.1 hPa | 0 mm | - | - | - |
| 1788642016 | 34.44° C | 22% | 1011.1 hPa | 0 mm | - | - | - |
| 1788641114 | 33.33° C | 24% | 1011.2 hPa | 0 mm | - | - | - |
| 1788640213 | 33.33° C | 23% | 1011.4 hPa | 0 mm | - | - | - |
| 1788639311 | 33.33° C | 23% | 1011.7 hPa | 0 mm | - | - | - |
| 1788638407 | 33.33° C | 23% | 1011.9 hPa | 0 mm | - | - | - |
| 1788637505 | 32.22° C | 25% | 1012 hPa | 0 mm | - | - | - |
| 1788636608 | 32.22° C | 26% | 1012.3 hPa | 0 mm | - | - | - |
| 1788635705 | 31.67° C | 26% | 1012.5 hPa | 0 mm | - | - | - |
| 1788634803 | 32.78° C | 26% | 1012.7 hPa | 0 mm | - | - | - |
| 1788633980 | 32.22° C | 27% | 1012.8 hPa | 0 mm | - | - | - |
| 1788633061 | 30.56° C | 29% | 1013 hPa | 0 mm | - | - | - |
| 1788632160 | 30° C | 27% | 1013 hPa | 0 mm | - | - | - |
| 1788631255 | 30° C | 28% | 1013.1 hPa | 0 mm | - | - | - |
| 1788630352 | 29.44° C | 29% | 1013.1 hPa | 0 mm | - | - | - |
| 1788629447 | 28.33° C | 32% | 1013 hPa | 0 mm | - | - | - |
| 1788628545 | 27.22° C | 33% | 1013.1 hPa | 0 mm | - | - | - |
| 1788627646 | 26.67° C | 34% | 1013.2 hPa | 0 mm | - | - | - |
| 1788626740 | 26.11° C | 37% | 1013.2 hPa | 0 mm | - | - | - |
| 1788625836 | 25° C | 39% | 1013.2 hPa | 0 mm | - | - | - |
| 1788624931 | 23.89° C | 48% | 1013.1 hPa | 0 mm | - | - | - |
| 1788624030 | 22.78° C | 51% | 1013.1 hPa | 0 mm | - | - | - |
| 1788623129 | 21.67° C | 58% | 1013.1 hPa | 0 mm | - | - | - |
| 1788622222 | 21.11° C | 66% | 1013 hPa | 0 mm | - | - | - |
* Rain latest hour (hover to see other rain measurements)
** Current wind speed in m/s (hover to see current wind gust speed)